Simultaneous Nadir Overpasses (SNOs) Predictions

Prediction of SNOs between NOAA-19 and TERRA Satellite Orbit:

Table of predicted SNOs for the next 14.0 days since TLE Epoch: 2/10/2024
Index Date (NOAA-19) Time (NOAA-19) Lat,Lon (NOAA-19) SZA (NOAA-19 ) Date (TERRA) Time (TERRA) Lat,Lon (TERRA) SZA (TERRA ) Distance(km) Time Diff (sec)
1 02/11/2024 03:23:18 80.30, 153.27 95.06 02/11/2024 03:23:55 80.30, 153.17 95.06 1.73 37
2 02/11/2024 04:14:17 -80.35, -38.83 84.88 02/11/2024 04:13:16 -80.35, -38.71 84.88 2.23 61
3 02/13/2024 07:13:30 -80.30, -84.35 85.67 02/13/2024 07:13:31 -80.31, -84.20 85.65 3.17 1
4 02/15/2024 10:12:43 -80.24,-129.94 86.48 02/15/2024 10:13:46 -80.25,-129.83 86.46 2.25 63
5 02/15/2024 11:03:39 80.29, 38.11 93.60 02/15/2024 11:03:05 80.29, 38.24 93.60 2.46 34
6 02/17/2024 14:02:52 80.24, -7.38 92.79 02/17/2024 14:03:19 80.24, -7.26 92.80 2.21 27
7 02/17/2024 14:53:48 -80.32, 160.99 87.10 02/17/2024 14:52:40 -80.30, 160.92 87.13 1.85 68
8 02/19/2024 17:53:00 -80.27, 115.59 87.92 02/19/2024 17:52:53 -80.28, 115.59 87.92 0.53 7
9 02/21/2024 20:52:13 -80.20, 69.81 88.80 02/21/2024 20:53:07 -80.20, 69.83 88.79 0.44 54
10 02/21/2024 21:43:10 80.27,-121.97 91.31 02/21/2024 21:42:25 80.27,-121.88 91.30 1.80 45



Historial Predications of SNOs between NOAA-19 and TERRA
